[[{"header":{"parameterUnit":"m.s-1","parameterCategory":2,"la1":30.2991,"la2":30.254,"lo1":-89.0895,"lo2":-89.0444,"dy":0.0017,"dx":0.0017,"nx":28,"ny":28,"refTime":"2024-02-16T09:00:00:Z","depth":"0","parameterNumber":2,"parameterNumberName":"U-component_of_CURRENTS"},"data":[0,0,0,0,0,0,0,0,0,0,0,0,0,0,0,0,0,0,0,0,0,0,0,0,0,0,0,0,0,0,0,0,0,0,0,0,0,0,0,0,0,0,0,0,0,0,0,0,0,0,0,0,0,0,0,0,0,0,0.1847,0.1847,0,0.1857,0.1857,0.1857,0.1851,0.1851,0.1851,0.1851,0.1827,0.1827,0.1826,0,0,0,0,0,0,0,0,0,0,0,0,0,0.1806,0.1806,0.1846,0.1847,0.1847,0.1857,0.1857,0.1857,0.1851,0.1851,0.1851,0.1851,0.1828,0.1827,0.1826,0,0,0,0,0,0,0,0,0,0,0,0,0,0.1818,0.1807,0.1846,0.1847,0.1848,0.1857,0.1857,0.1857,0.1851,0.1851,0.1851,0.1851,0.1828,0.1827,0.1826,0.1823,0,0,0.1824,0.1823,0,0,0,0,0,0,0,0,0.1818,0.182,0.1847,0.1847,0.1848,0.1855,0.1834,0.1845,0.1851,0.1848,0.1851,0.1851,0.1835,0.1834,0.1833,0.1822,0.1821,0.1823,0.1823,0.1823,0.1822,0,0,0,0,0,0,0,0.1817,0.1819,0.1848,0.1847,0.1848,0.1842,0.1844,0.1836,0.1839,0.1848,0.1848,0.1853,0.1835,0.1834,0.1832,0.182,0.1823,0.1823,0.1822,0.1822,0.1831,0.1831,0,0,0,0,0,0,0.1821,0.1818,0.1848,0.1849,0.1835,0.1843,0.1845,0.1851,0.184,0.1839,0.1853,0.1853,0.1835,0.1833,0.1831,0.1853,0.1823,0.1822,0.1821,0.183,0.1831,0.1831,0,0,0,0,0,0,0.1821,0.1824,0.1848,0.1836,0.1838,0.1844,0.1851,0.1851,0.1855,0.1845,0.1843,0.1858,0.1835,0.1833,0.1833,0.1851,0.1821,0.1821,0.1829,0.183,0.1831,0.1878,0,0,0,0,0,0,0.1819,0.1824,0.1827,0.1836,0.1839,0.1861,0.1851,0.1851,0.1859,0.1859,0.1848,0.1846,0.1835,0.1834,0.1832,0.1849,0.182,0.1828,0.1829,0.1831,0.1876,0.1881,0.1885,0,0,0,0,0,0.1818,0.1824,0.1827,0.183,0.1844,0.1862,0.1863,0.1865,0.186,0.1866,0.1859,0.1846,0.1841,0.1834,0.1831,0.1848,0.1827,0.1829,0.1831,0.1874,0.188,0.1885,0,0,0,0,0,0,0.1804,0.1825,0.1827,0.1839,0.1853,0.1862,0.1867,0.1869,0.1868,0.1867,0.1852,0.185,0.1858,0.1845,0.1837,0.1855,0.1834,0.1835,0.1868,0.1873,0.1878,0.1882,0.1819,0,0,0,0,0,0.1804,0.1818,0.1835,0.1844,0.1853,0.186,0.1866,0.1871,0.1874,0.1874,0.1866,0.186,0.1862,0.1861,0.1857,0.1863,0.187,0.1874,0.1879,0.1883,0.1885,0.1912,0.192,0.1837,0.1837,0.1837,0,0,0.18,0.1815,0.1821,0.1843,0.1852,0.1869,0.1863,0.1879,0.1892,0.1871,0.1879,0.1875,0.1868,0.1879,0.1881,0.187,0.1913,0.1885,0.1889,0.1888,0.1915,0.1923,0.193,0.1838,0.1838,0.1838,0,0,0.1804,0.1815,0.1828,0.1845,0.1868,0.1877,0.1884,0.1898,0.1902,0.1911,0.1905,0.1912,0.1905,0.1911,0.1912,0.1939,0.1938,0.1938,0.1965,0.1992,0.1999,0.2006,0.2041,0.205,0.194,0.194,0.1941,0,0.1797,0.182,0.1834,0.1855,0.187,0.1883,0.1901,0.1911,0.1922,0.1931,0.1919,0.1931,0.1923,0.1948,0.1958,0.1951,0.1967,0.1945,0.1999,0.2005,0.2011,0.2046,0.2055,0.1943,0.1943,0.1942,0.1942,0,0.1814,0.1834,0.1845,0.1877,0.1893,0.1914,0.1935,0.1949,0.1954,0.1964,0.1985,0.1979,0.1989,0.1991,0.1981,0.2021,0.2022,0.2003,0.1986,0.2022,0.2057,0.2066,0.1946,0.1946,0.1945,0.1944,0,0,0.1793,0.1846,0.185,0.1872,0.1909,0.1925,0.1954,0.1984,0.2009,0.2014,0.2043,0.2048,0.2049,0.205,0.2046,0.2065,0.2124,0.2053,0.2053,0.2092,0.2196,0.2237,0.2251,0.2117,0.2118,0.2119,0.221,0,0.1802,0.1844,0.1869,0.1908,0.1931,0.1958,0.1986,0.2015,0.2036,0.2067,0.2074,0.2098,0.2072,0.2085,0.2101,0.2119,0.2147,0.2102,0.2152,0.2153,0.2188,0.2262,0.2264,0.2348,0.2218,0.222,0.2221,0,0.1808,0.184,0.188,0.1933,0.1945,0.1971,0.2023,0.2051,0.2099,0.2114,0.214,0.215,0.2188,0.2155,0.2209,0.2183,0.2194,0.2202,0.2205,0.2232,0.2212,0.2287,0.2369,0.2351,0.2235,0.2233,0.2232,0,0.179,0.1845,0.1879,0.1898,0.1958,0.1983,0.2015,0.2065,0.2096,0.2153,0.2186,0.2219,0.2255,0.2265,0.2291,0.2255,0.2355,0.2304,0.2354,0.2356,0.2361,0.2363,0.2433,0.2344,0.2344,0.2344,0.2343,0,0.1792,0.1817,0.1876,0.1898,0.1938,0.1982,0.2027,0.2066,0.2128,0.2189,0.2212,0.2277,0.2285,0.2342,0.2333,0.2397,0.2395,0.2383,0.2392,0.238,0.2382,0.2367,0.2345,0.2347,0.2346,0.2345,0.2345,0,0.1769,0.1807,0.1848,0.1914,0.1932,0.1962,0.2028,0.2072,0.2132,0.2217,0.2244,0.2337,0.2429,0.2443,0.2492,0.2476,0.2478,0.2526,0.2522,0.2528,0.2536,0.2516,0.2504,0.2404,0.259,0.2592,0.2593,0,0.176,0.1784,0.1849,0.1876,0.1908,0.1953,0.1995,0.206,0.2121,0.2269,0.2326,0.2443,0.2535,0.2631,0.2645,0.2669,0.2564,0.2665,0.2587,0.2569,0.2552,0.2437,0.2342,0.2615,0.2617,0.2618,0.2619,0,0.1748,0.1775,0.1812,0.1867,0.1912,0.1952,0.2026,0.2063,0.2177,0.226,0.2406,0.2492,0.2645,0.2701,0.2754,0.2755,0.2594,0.2691,0.267,0.2592,0.2473,0.237,0.2526,0.263,0.2629,0.2628,0.2627,0.2627,0.1734,0.1753,0.1808,0.1852,0.1903,0.195,0.196,0.2064,0.2145,0.2275,0.2418,0.2549,0.272,0.281,0.2786,0.2799,0.2689,0.2739,0.2724,0.2613,0.2497,0.2692,0.2802,0.2802,0.2802,0.2802,0.2802,0,0.1704,0.1738,0.179,0.1833,0.1867,0.1907,0.198,0.1991,0.2069,0.2252,0.237,0.2615,0.2731,0.2821,0.2914,0.2844,0.2671,0.2786,0.262,0.252,0.2721,0.2705,0.2802,0.2802,0.2802,0.2802,0.2802,0.2802,0.169,0.1715,0.1742,0.1775,0.181,0.1814,0.183,0.1878,0.1983,0.2149,0.231,0.2476,0.2759,0.3045,0.3048,0.2954,0.2676,0.2652,0.2531,0.2712,0.2704,0.2697,0.2677,0.2767,0.2767,0.2245,0.2242,0.2239]},{"header":{"parameterUnit":"m.s-1","parameterCategory":2,"la1":30.2991,"la2":30.254,"lo1":-89.0895,"lo2":-89.0444,"dy":0.0017,"dx":0.0017,"nx":28,"ny":28,"refTime":"2024-02-16T09:00:00:Z","depth":"0","parameterNumber":3,"parameterNumberName":"V-component_of_CURRENTS"},"data":[0,0,0,0,0,0,0,0,0,0,0,0,0,0,0,0,0,0,0,0,0,0,0,0,0,0,0,0,0,0,0,0,0,0,0,0,0,0,0,0,0,0,0,0,0,0,0,0,0,0,0,0,0,0,0,0,0,0,-0.0399,-0.0399,0,-0.0435,-0.0436,-0.0436,-0.0461,-0.0461,-0.0461,-0.0461,-0.0479,-0.0479,-0.048,0,0,0,0,0,0,0,0,0,0,0,0,0,-0.0384,-0.0384,-0.0399,-0.0399,-0.04,-0.0435,-0.0436,-0.0436,-0.0461,-0.0461,-0.0461,-0.0462,-0.0479,-0.0479,-0.048,0,0,0,0,0,0,0,0,0,0,0,0,0,-0.0402,-0.0384,-0.0399,-0.0416,-0.0418,-0.0435,-0.0436,-0.0436,-0.0461,-0.0461,-0.0461,-0.0462,-0.0479,-0.0479,-0.048,-0.0478,0,0,-0.0481,-0.0481,0,0,0,0,0,0,0,0,-0.0401,-0.0403,-0.0413,-0.0415,-0.0417,-0.0444,-0.0437,-0.0449,-0.0461,-0.0445,-0.0461,-0.0462,-0.0465,-0.0467,-0.0474,-0.0479,-0.0479,-0.0481,-0.0481,-0.0482,-0.0482,0,0,0,0,0,0,0,-0.04,-0.0402,-0.0414,-0.0414,-0.0416,-0.0433,-0.0436,-0.044,-0.0453,-0.0446,-0.0448,-0.0452,-0.0466,-0.0473,-0.0474,-0.048,-0.0481,-0.0482,-0.0482,-0.0482,-0.0484,-0.0484,0,0,0,0,0,0,-0.0393,-0.04,-0.0413,-0.0415,-0.0409,-0.0433,-0.0436,-0.0435,-0.0454,-0.0457,-0.0452,-0.0453,-0.0472,-0.0474,-0.0475,-0.0465,-0.0482,-0.0482,-0.0482,-0.0485,-0.0484,-0.0484,0,0,0,0,0,0,-0.0392,-0.0393,-0.0411,-0.0409,-0.0412,-0.0433,-0.0432,-0.0436,-0.0442,-0.0458,-0.046,-0.0453,-0.0472,-0.0474,-0.0476,-0.0466,-0.0482,-0.0483,-0.0485,-0.0485,-0.0484,-0.045,0,0,0,0,0,0,-0.0392,-0.0393,-0.0389,-0.0408,-0.0412,-0.0414,-0.0432,-0.0436,-0.0443,-0.0445,-0.046,-0.0462,-0.0473,-0.0475,-0.0476,-0.0467,-0.0483,-0.0485,-0.0485,-0.0484,-0.0451,-0.0448,-0.0446,0,0,0,0,0,-0.0391,-0.038,-0.0388,-0.039,-0.0406,-0.0414,-0.0417,-0.0434,-0.0443,-0.0441,-0.0453,-0.0461,-0.0474,-0.0475,-0.0477,-0.0467,-0.0485,-0.0485,-0.0484,-0.0453,-0.0449,-0.0446,0,0,0,0,0,0,-0.0368,-0.0382,-0.0392,-0.0385,-0.0397,-0.0418,-0.0416,-0.043,-0.0439,-0.044,-0.0458,-0.046,-0.0459,-0.0468,-0.047,-0.0467,-0.0481,-0.0481,-0.0456,-0.0453,-0.045,-0.0436,-0.0484,0,0,0,0,0,-0.0362,-0.0358,-0.0376,-0.037,-0.0374,-0.0396,-0.0401,-0.0412,-0.0424,-0.0429,-0.0441,-0.0452,-0.0459,-0.046,-0.0468,-0.0463,-0.0479,-0.0459,-0.0456,-0.0454,-0.0444,-0.0465,-0.0463,-0.0482,-0.0482,-0.0482,0,0,-0.035,-0.0358,-0.0356,-0.0366,-0.0376,-0.0373,-0.0399,-0.0402,-0.0398,-0.0428,-0.0425,-0.0443,-0.0456,-0.0455,-0.0455,-0.046,-0.0458,-0.0453,-0.0451,-0.0443,-0.0464,-0.0462,-0.046,-0.0482,-0.0482,-0.0482,0,0,-0.0325,-0.0333,-0.0322,-0.0329,-0.0342,-0.0354,-0.0353,-0.0372,-0.0379,-0.0381,-0.0402,-0.0413,-0.0423,-0.0432,-0.0437,-0.0423,-0.0445,-0.0427,-0.0399,-0.0419,-0.0417,-0.0416,-0.0439,-0.044,-0.0423,-0.0423,-0.0423,0,-0.0311,-0.03,-0.032,-0.0312,-0.0312,-0.0341,-0.0328,-0.0338,-0.0356,-0.0358,-0.0373,-0.0396,-0.041,-0.0407,-0.0405,-0.0416,-0.0433,-0.0409,-0.0415,-0.0414,-0.0413,-0.0437,-0.0439,-0.0422,-0.0422,-0.0422,-0.0422,0,-0.0279,-0.0271,-0.0264,-0.0263,-0.0266,-0.0258,-0.0275,-0.0277,-0.0293,-0.0309,-0.0317,-0.0344,-0.0357,-0.0366,-0.0381,-0.0381,-0.0398,-0.0411,-0.0421,-0.0409,-0.0436,-0.0438,-0.0419,-0.042,-0.042,-0.0421,0,0,-0.0241,-0.0241,-0.0237,-0.0228,-0.0238,-0.0234,-0.0226,-0.0228,-0.0221,-0.0249,-0.0245,-0.0269,-0.0296,-0.0303,-0.0329,-0.0346,-0.0364,-0.0373,-0.0375,-0.0393,-0.0412,-0.0436,-0.0442,-0.0381,-0.0381,-0.0381,-0.0434,0,-0.0208,-0.0181,-0.0191,-0.0163,-0.0149,-0.0169,-0.0155,-0.0163,-0.0182,-0.0186,-0.0222,-0.0231,-0.0268,-0.0276,-0.03,-0.0346,-0.0367,-0.0348,-0.0423,-0.0425,-0.0446,-0.0444,-0.0476,-0.0527,-0.0437,-0.0437,-0.0437,0,-0.017,-0.0157,-0.0125,-0.0109,-0.0104,-0.0091,-0.0079,-0.0075,-0.0092,-0.0109,-0.0134,-0.0168,-0.0196,-0.0232,-0.0304,-0.0291,-0.0344,-0.0385,-0.0389,-0.0422,-0.0454,-0.0524,-0.0535,-0.0722,-0.0441,-0.0441,-0.0441,0,-0.013,-0.0109,-0.008,-0.0075,-0.0063,-0.0047,-0.0041,-0.0049,-0.0043,-0.0064,-0.0068,-0.0114,-0.0135,-0.0205,-0.0294,-0.0299,-0.0378,-0.0398,-0.047,-0.0473,-0.0519,-0.0526,-0.0715,-0.0446,-0.0446,-0.0446,-0.0445,0,-0.0089,-0.0065,-0.0057,-0.0039,0.0,-0.0007,0.0025,0.0022,0.0017,0.0036,-0.0026,-0.0023,-0.0129,-0.019,-0.0276,-0.038,-0.0367,-0.0462,-0.0486,-0.0509,-0.0514,-0.0693,-0.0789,-0.0448,-0.0447,-0.0447,-0.0446,0,-0.005,-0.0045,-0.001,0.0011,0.0021,0.0048,0.0066,0.0088,0.0074,0.0098,0.0095,0.004,-0.0037,-0.0154,-0.0268,-0.0353,-0.0568,-0.0493,-0.0514,-0.0539,-0.0778,-0.0869,-0.1077,-0.1167,-0.0581,-0.0581,-0.0582,0,-0.0029,-0.0006,0.0027,0.005,0.0062,0.0094,0.0122,0.0119,0.0145,0.0147,0.0171,0.0099,0.0071,-0.0123,-0.0298,-0.0463,-0.0619,-0.0599,-0.0613,-0.0798,-0.0918,-0.0996,-0.1062,-0.0667,-0.0669,-0.067,-0.0671,0,0.001,0.0022,0.005,0.0097,0.0132,0.0171,0.0212,0.0241,0.0256,0.0273,0.0301,0.0278,0.0088,-0.0095,-0.034,-0.0465,-0.0764,-0.0627,-0.0819,-0.1001,-0.1098,-0.1193,-0.063,-0.0681,-0.068,-0.0679,-0.0678,-0.0678,0.0038,0.0064,0.01,0.015,0.019,0.0254,0.0296,0.0342,0.0392,0.0432,0.0411,0.0383,0.0094,-0.0246,-0.0448,-0.0868,-0.0851,-0.0987,-0.1081,-0.1141,-0.1241,-0.0698,-0.0773,-0.0773,-0.0772,-0.0772,-0.0772,0,0.0077,0.0104,0.0148,0.0208,0.0266,0.0279,0.036,0.0402,0.0476,0.0498,0.0513,0.0325,-0.004,-0.0416,-0.0951,-0.1256,-0.1377,-0.1442,-0.1578,-0.162,-0.114,-0.1157,-0.132,-0.132,-0.1319,-0.1319,-0.1319,-0.1319,0.0095,0.0147,0.0172,0.0266,0.031,0.0384,0.0438,0.0491,0.0517,0.0508,0.0454,0.0397,0.003,-0.0862,-0.1596,-0.1749,-0.1994,-0.2042,-0.2153,-0.185,-0.1815,-0.1782,-0.1822,-0.2121,-0.2122,-0.2607,-0.2612,-0.2616]}],[{"header":{"parameterUnit":"m.s-1","parameterCategory":2,"la1":30.2991,"la2":30.254,"lo1":-89.0895,"lo2":-89.0444,"dy":0.0017,"dx":0.0017,"nx":28,"ny":28,"refTime":"2024-02-16T09:00:00:Z","depth":"2","parameterNumber":2,"parameterNumberName":"U-component_of_CURRENTS"},"data":[0,0,0,0,0,0,0,0,0,0,0,0,0,0,0,0,0,0,0,0,0,0,0,0,0,0,0,0,0,0,0,0,0,0,0,0,0,0,0,0,0,0,0,0,0,0,0,0,0,0,0,0,0,0,0,0,0,0,0.1839,0.1839,0,0.185,0.185,0.185,0.1845,0.1845,0.1845,0.1845,0.1823,0.1822,0.1822,0,0,0,0,0,0,0,0,0,0,0,0,0,0.1799,0.18,0.1839,0.1839,0.184,0.185,0.185,0.1849,0.1845,0.1845,0.1845,0.1845,0.1823,0.1822,0.1821,0,0,0,0,0,0,0,0,0,0,0,0,0,0.1811,0.18,0.1839,0.184,0.1841,0.185,0.185,0.1849,0.1845,0.1845,0.1845,0.1845,0.1823,0.1822,0.1821,0.1818,0,0,0.1819,0.1819,0,0,0,0,0,0,0,0,0.1811,0.1813,0.184,0.184,0.1841,0.1848,0.1828,0.1838,0.1845,0.1841,0.1845,0.1845,0.183,0.1828,0.1827,0.1817,0.1816,0.1819,0.1818,0.1818,0.1818,0,0,0,0,0,0,0,0.181,0.1812,0.1841,0.184,0.1841,0.1835,0.1837,0.1829,0.1833,0.1841,0.1841,0.1846,0.1829,0.1828,0.1827,0.1815,0.1819,0.1818,0.1818,0.1817,0.1827,0.1828,0,0,0,0,0,0,0.1814,0.1811,0.1841,0.1841,0.1828,0.1836,0.1838,0.1844,0.1834,0.1833,0.1846,0.1846,0.183,0.1828,0.1826,0.1848,0.1818,0.1817,0.1817,0.1826,0.1827,0.1828,0,0,0,0,0,0,0.1813,0.1817,0.184,0.1828,0.1831,0.1837,0.1844,0.1844,0.1849,0.1839,0.1837,0.1852,0.183,0.1827,0.1828,0.1846,0.1817,0.1816,0.1826,0.1827,0.1828,0.1874,0,0,0,0,0,0,0.1812,0.1816,0.182,0.1829,0.1832,0.1853,0.1844,0.1844,0.1853,0.1852,0.1842,0.184,0.1829,0.1829,0.1827,0.1844,0.1815,0.1825,0.1826,0.1827,0.1872,0.1877,0.1881,0,0,0,0,0,0.1811,0.1817,0.182,0.1823,0.1837,0.1854,0.1855,0.1857,0.1853,0.186,0.1853,0.1841,0.1837,0.1829,0.1826,0.1844,0.1824,0.1826,0.1827,0.187,0.1876,0.1881,0,0,0,0,0,0,0.1798,0.1818,0.1821,0.1832,0.1846,0.1855,0.186,0.1862,0.1862,0.1861,0.1847,0.1844,0.1853,0.1841,0.1833,0.1851,0.183,0.1831,0.1863,0.1869,0.1873,0.1878,0.1815,0,0,0,0,0,0.1798,0.1811,0.1828,0.1838,0.1846,0.1854,0.186,0.1865,0.1868,0.1868,0.186,0.1855,0.1858,0.1857,0.1853,0.186,0.1867,0.187,0.1875,0.1879,0.1882,0.1908,0.1916,0.1834,0.1834,0.1834,0,0,0.1794,0.1809,0.1814,0.1836,0.1845,0.1862,0.1857,0.1873,0.1885,0.1865,0.1873,0.187,0.1863,0.1874,0.1877,0.1866,0.1909,0.1881,0.1885,0.1885,0.1911,0.1919,0.1926,0.1835,0.1835,0.1834,0,0,0.1798,0.1809,0.1823,0.1839,0.1862,0.187,0.1878,0.1891,0.1896,0.1905,0.1899,0.1907,0.1901,0.1907,0.1908,0.1935,0.1934,0.1934,0.1961,0.1988,0.1995,0.2001,0.2036,0.2045,0.1937,0.1937,0.1937,0,0.1791,0.1814,0.1828,0.1849,0.1864,0.1876,0.1895,0.1905,0.1915,0.1925,0.1913,0.1926,0.1919,0.1944,0.1954,0.1947,0.1963,0.1941,0.1995,0.2001,0.2007,0.2041,0.205,0.1939,0.1939,0.1939,0.1938,0,0.1808,0.1828,0.184,0.1871,0.1887,0.1908,0.1928,0.1943,0.1948,0.1957,0.1979,0.1974,0.1984,0.1986,0.1977,0.2017,0.2017,0.1999,0.1982,0.2018,0.2051,0.206,0.1943,0.1942,0.1941,0.194,0,0,0.1788,0.184,0.1845,0.1866,0.1902,0.1919,0.1947,0.1977,0.2002,0.2007,0.2037,0.2042,0.2044,0.2045,0.2041,0.206,0.2118,0.2048,0.2049,0.2086,0.2189,0.2226,0.2239,0.2111,0.2112,0.2114,0.2202,0,0.1797,0.1839,0.1863,0.1901,0.1924,0.1951,0.1978,0.2007,0.2028,0.2059,0.2067,0.2091,0.2066,0.208,0.2096,0.2114,0.2141,0.2096,0.2145,0.2147,0.2178,0.225,0.2032,0.2096,0.2211,0.2212,0.2213,0,0.1803,0.1835,0.1874,0.1926,0.1938,0.1964,0.2016,0.2043,0.2091,0.2106,0.2133,0.2143,0.2181,0.2149,0.2202,0.2176,0.2188,0.2195,0.2199,0.2221,0.2201,0.2075,0.2107,0.2228,0.2227,0.2226,0.2225,0,0.1786,0.184,0.1873,0.1891,0.1951,0.1976,0.2007,0.2058,0.2089,0.2145,0.2179,0.221,0.2247,0.2257,0.2283,0.2247,0.2345,0.2296,0.2341,0.2343,0.2161,0.2147,0.2335,0.2335,0.2335,0.2334,0.2334,0,0.1787,0.1813,0.1871,0.1892,0.1932,0.1975,0.2021,0.206,0.2121,0.2182,0.2205,0.2269,0.2277,0.2333,0.2324,0.2384,0.2384,0.237,0.2377,0.2175,0.2161,0.2266,0.2257,0.2338,0.2337,0.2336,0.2336,0,0.1765,0.1803,0.1843,0.1908,0.1926,0.1956,0.2023,0.2066,0.2127,0.2211,0.2237,0.233,0.2418,0.2432,0.2479,0.2462,0.2493,0.2509,0.2286,0.2268,0.2458,0.245,0.2564,0.2566,0.2568,0.257,0.2571,0,0.1756,0.178,0.1845,0.1871,0.1903,0.1949,0.199,0.2055,0.2116,0.2263,0.2319,0.2433,0.2514,0.2606,0.2579,0.2588,0.259,0.2412,0.2306,0.2491,0.2486,0.2475,0.2465,0.2076,0.2073,0.2071,0.2069,0,0.1744,0.1772,0.1809,0.1863,0.1908,0.1947,0.2021,0.2059,0.2171,0.2246,0.2388,0.2464,0.2576,0.2501,0.2532,0.2503,0.239,0.2373,0.2615,0.2075,0.2044,0.2036,0.2039,0.2048,0.2051,0.2052,0.2053,0.2054,0.1731,0.175,0.1805,0.1848,0.1899,0.1945,0.1955,0.2019,0.2088,0.2142,0.2324,0.2319,0.2368,0.2289,0.2261,0.2223,0.238,0.2237,0.2236,0.2241,0.2192,0.2169,0.2187,0.219,0.2192,0.2194,0.2196,0,0.1695,0.1736,0.1788,0.183,0.1848,0.1903,0.1975,0.1934,0.195,0.2004,0.2051,0.1906,0.1886,0.1925,0.1846,0.1908,0.1814,0.1831,0.1651,0.1676,0.1697,0.1613,0.1458,0.1455,0.1453,0.1451,0,0,0.1678,0.1699,0.1725,0.1746,0.1788,0.1764,0.1779,0.1729,0.1717,0.1633,0.1578,0.1669,0.1823,0.1546,0.1584,0.15,0.1555,0.1448,0.2044,0.1853,0.187,0.1951,0.1856,0,0,0,0,0]},{"header":{"parameterUnit":"m.s-1","parameterCategory":2,"la1":30.2991,"la2":30.254,"lo1":-89.0895,"lo2":-89.0444,"dy":0.0017,"dx":0.0017,"nx":28,"ny":28,"refTime":"2024-02-16T09:00:00:Z","depth":"2","parameterNumber":3,"parameterNumberName":"V-component_of_CURRENTS"},"data":[0,0,0,0,0,0,0,0,0,0,0,0,0,0,0,0,0,0,0,0,0,0,0,0,0,0,0,0,0,0,0,0,0,0,0,0,0,0,0,0,0,0,0,0,0,0,0,0,0,0,0,0,0,0,0,0,0,0,-0.0323,-0.0323,0,-0.0358,-0.0358,-0.0359,-0.0384,-0.0385,-0.0385,-0.0385,-0.0403,-0.0403,-0.0403,0,0,0,0,0,0,0,0,0,0,0,0,0,-0.0309,-0.0309,-0.0323,-0.0323,-0.0324,-0.0358,-0.0358,-0.0359,-0.0384,-0.0385,-0.0385,-0.0385,-0.0403,-0.0403,-0.0403,0,0,0,0,0,0,0,0,0,0,0,0,0,-0.0326,-0.0308,-0.0323,-0.034,-0.0342,-0.0358,-0.0358,-0.0359,-0.0384,-0.0385,-0.0385,-0.0385,-0.0402,-0.0403,-0.0403,-0.04,0,0,-0.0405,-0.0405,0,0,0,0,0,0,0,0,-0.0325,-0.0327,-0.0337,-0.0339,-0.0341,-0.0367,-0.036,-0.0372,-0.0384,-0.0368,-0.0385,-0.0385,-0.0389,-0.039,-0.0397,-0.0401,-0.0402,-0.0405,-0.0405,-0.0405,-0.0405,0,0,0,0,0,0,0,-0.0324,-0.0326,-0.0337,-0.0338,-0.034,-0.0357,-0.036,-0.0363,-0.0376,-0.037,-0.0372,-0.0375,-0.039,-0.0396,-0.0397,-0.0402,-0.0405,-0.0405,-0.0405,-0.0405,-0.0407,-0.0407,0,0,0,0,0,0,-0.0317,-0.0324,-0.0336,-0.0338,-0.0334,-0.0357,-0.036,-0.0359,-0.0377,-0.038,-0.0375,-0.0376,-0.0395,-0.0397,-0.0398,-0.0389,-0.0405,-0.0406,-0.0406,-0.0407,-0.0407,-0.0407,0,0,0,0,0,0,-0.0317,-0.0318,-0.0334,-0.0332,-0.0335,-0.0356,-0.0355,-0.0359,-0.0366,-0.0381,-0.0384,-0.0377,-0.0396,-0.0397,-0.0399,-0.039,-0.0406,-0.0406,-0.0408,-0.0407,-0.0407,-0.0375,0,0,0,0,0,0,-0.0316,-0.0317,-0.0314,-0.0331,-0.0335,-0.0337,-0.0355,-0.036,-0.0367,-0.0369,-0.0384,-0.0386,-0.0396,-0.0399,-0.04,-0.0391,-0.0406,-0.0408,-0.0408,-0.0407,-0.0376,-0.0373,-0.0371,0,0,0,0,0,-0.0315,-0.0304,-0.0313,-0.0315,-0.033,-0.0337,-0.034,-0.0357,-0.0367,-0.0365,-0.0378,-0.0385,-0.0397,-0.0399,-0.04,-0.0391,-0.0408,-0.0408,-0.0407,-0.0377,-0.0374,-0.0371,0,0,0,0,0,0,-0.0294,-0.0307,-0.0317,-0.031,-0.0321,-0.0341,-0.034,-0.0354,-0.0363,-0.0365,-0.0382,-0.0384,-0.0384,-0.0392,-0.0394,-0.0392,-0.0404,-0.0404,-0.0381,-0.0378,-0.0375,-0.0362,-0.0407,0,0,0,0,0,-0.0288,-0.0285,-0.0301,-0.0296,-0.03,-0.0321,-0.0326,-0.0337,-0.0349,-0.0354,-0.0366,-0.0377,-0.0383,-0.0384,-0.0392,-0.0387,-0.0403,-0.0383,-0.0381,-0.0379,-0.0369,-0.0389,-0.0387,-0.0405,-0.0405,-0.0405,0,0,-0.0278,-0.0285,-0.0283,-0.0292,-0.0302,-0.0299,-0.0324,-0.0328,-0.0324,-0.0353,-0.035,-0.0368,-0.0381,-0.0379,-0.0379,-0.0384,-0.0383,-0.0378,-0.0376,-0.0368,-0.0388,-0.0387,-0.0385,-0.0405,-0.0405,-0.0405,0,0,-0.0253,-0.0262,-0.0251,-0.0258,-0.027,-0.0281,-0.028,-0.0299,-0.0306,-0.0309,-0.0329,-0.034,-0.0349,-0.0357,-0.0362,-0.0349,-0.0371,-0.0353,-0.0326,-0.0346,-0.0344,-0.0343,-0.0366,-0.0367,-0.035,-0.035,-0.035,0,-0.0241,-0.023,-0.0249,-0.0241,-0.024,-0.0269,-0.0256,-0.0266,-0.0283,-0.0285,-0.0301,-0.0323,-0.0337,-0.0333,-0.0332,-0.0342,-0.0359,-0.0336,-0.0342,-0.0341,-0.0341,-0.0364,-0.0366,-0.0348,-0.0348,-0.0348,-0.0349,0,-0.0209,-0.0202,-0.0195,-0.0193,-0.0196,-0.0189,-0.0204,-0.0207,-0.0223,-0.0239,-0.0246,-0.0273,-0.0285,-0.0295,-0.0309,-0.0309,-0.0326,-0.0338,-0.0348,-0.0337,-0.0363,-0.0365,-0.0346,-0.0346,-0.0347,-0.0347,0,0,-0.0174,-0.0172,-0.0169,-0.016,-0.0169,-0.0165,-0.0157,-0.0158,-0.0151,-0.018,-0.0175,-0.02,-0.0226,-0.0233,-0.0258,-0.0276,-0.0294,-0.0302,-0.0304,-0.0322,-0.0341,-0.0366,-0.0371,-0.031,-0.031,-0.031,-0.0363,0,-0.0142,-0.0115,-0.0124,-0.0096,-0.0082,-0.01,-0.0087,-0.0095,-0.0113,-0.0117,-0.0152,-0.0162,-0.0199,-0.0207,-0.0231,-0.0276,-0.0298,-0.0279,-0.0352,-0.0354,-0.0374,-0.0373,-0.0322,-0.0366,-0.0366,-0.0366,-0.0367,0,-0.0105,-0.0092,-0.0059,-0.0043,-0.0037,-0.0024,-0.0012,-0.0007,-0.0024,-0.004,-0.0065,-0.0099,-0.0128,-0.0164,-0.0235,-0.0222,-0.0275,-0.0316,-0.0319,-0.0352,-0.0382,-0.0376,-0.037,-0.0371,-0.037,-0.037,-0.037,0,-0.0066,-0.0044,-0.0015,-0.001,0.0003,0.0019,0.0026,0.0018,0.0025,0.0004,0.0001,-0.0046,-0.0067,-0.0136,-0.0226,-0.0231,-0.0308,-0.0327,-0.04,-0.0402,-0.0377,-0.0377,-0.0376,-0.0376,-0.0375,-0.0375,-0.0375,0,-0.0026,-0.0002,0.0007,0.0025,0.0065,0.0059,0.0091,0.0088,0.0084,0.0104,0.0041,0.0045,-0.0061,-0.0121,-0.0207,-0.0311,-0.0297,-0.0392,-0.0415,-0.0365,-0.0364,-0.0381,-0.0381,-0.0377,-0.0377,-0.0376,-0.0376,0,0.0012,0.0017,0.0053,0.0075,0.0085,0.0112,0.0132,0.0155,0.0141,0.0165,0.0162,0.0108,0.0032,-0.0084,-0.0197,-0.0283,-0.0381,-0.0422,-0.036,-0.0375,-0.0468,-0.0466,-0.0507,-0.0508,-0.0509,-0.051,-0.0511,0,0.0033,0.0056,0.009,0.0113,0.0126,0.0158,0.0187,0.0185,0.0212,0.0215,0.0239,0.0168,0.0145,-0.0048,-0.0204,-0.0364,-0.0397,-0.0441,-0.0443,-0.0462,-0.0481,-0.0477,-0.0473,-0.0399,-0.0399,-0.0399,-0.0398,0,0.0072,0.0084,0.0113,0.0161,0.0196,0.0237,0.0278,0.0308,0.0325,0.0348,0.0377,0.0358,0.0183,0.0043,-0.0194,-0.03,-0.0414,-0.0444,-0.0471,-0.0378,-0.0366,-0.0382,-0.0381,-0.0397,-0.0397,-0.0397,-0.0397,-0.0397,0.0101,0.0127,0.0163,0.0213,0.0255,0.0319,0.0362,0.0446,0.0508,0.0599,0.0528,0.0537,0.0333,0.0071,-0.0158,-0.0402,-0.04,-0.0469,-0.0467,-0.0466,-0.0448,-0.0439,-0.048,-0.0481,-0.0482,-0.0482,-0.0483,0,0.0156,0.0166,0.0211,0.0272,0.0349,0.0344,0.0426,0.0525,0.0656,0.0729,0.0778,0.0621,0.0426,0.0163,-0.0182,-0.0403,-0.0405,-0.048,-0.0426,-0.0425,-0.0425,-0.0404,-0.0426,-0.0426,-0.0427,-0.0428,0,0,0.0179,0.0239,0.0264,0.0368,0.0396,0.0512,0.0566,0.0727,0.082,0.0942,0.0945,0.0911,0.054,0.0315,0.0002,-0.0217,-0.0271,-0.0258,-0.0275,-0.0173,-0.0171,-0.0389,-0.0351,0,0,0,0,0]}],[{"header":{"parameterUnit":"m.s-1","parameterCategory":2,"la1":30.2991,"la2":30.254,"lo1":-89.0895,"lo2":-89.0444,"dy":0.0017,"dx":0.0017,"nx":28,"ny":28,"refTime":"2024-02-16T09:00:00:Z","depth":"4","parameterNumber":2,"parameterNumberName":"U-component_of_CURRENTS"},"data":[0,0,0,0,0,0,0,0,0,0,0,0,0,0,0,0,0,0,0,0,0,0,0,0,0,0,0,0,0,0,0,0,0,0,0,0,0,0,0,0,0,0,0,0,0,0,0,0,0,0,0,0,0,0,0,0,0,0,0.1194,0.1195,0,0.1239,0.124,0.124,0.1279,0.128,0.1281,0.1281,0.1335,0.1335,0.1336,0,0,0,0,0,0,0,0,0,0,0,0,0,0.1133,0.1134,0.1194,0.1195,0.1195,0.1239,0.124,0.124,0.1279,0.128,0.1281,0.1281,0.1334,0.1335,0.1336,0,0,0,0,0,0,0,0,0,0,0,0,0,0.1165,0.1134,0.1194,0.1221,0.1224,0.1239,0.124,0.124,0.1279,0.128,0.1281,0.1282,0.1334,0.1335,0.1336,0.1327,0,0,0.134,0.1341,0,0,0,0,0,0,0,0,0.1164,0.1167,0.1217,0.1219,0.1223,0.1256,0.1238,0.127,0.1279,0.1257,0.1281,0.1282,0.1309,0.1313,0.1317,0.133,0.1332,0.1341,0.1341,0.1342,0.1342,0,0,0,0,0,0,0,0.1161,0.1166,0.121,0.1217,0.1221,0.1228,0.1234,0.1244,0.1277,0.1259,0.1262,0.1269,0.1311,0.1316,0.1319,0.1333,0.1341,0.1342,0.1343,0.1343,0.1418,0.1419,0,0,0,0,0,0,0.1158,0.1164,0.1209,0.1212,0.1196,0.1229,0.1235,0.1243,0.1276,0.1283,0.1268,0.1271,0.1313,0.1317,0.1321,0.1385,0.1342,0.1343,0.1344,0.1417,0.1418,0.142,0,0,0,0,0,0,0.1157,0.1162,0.1207,0.119,0.1196,0.1229,0.1238,0.1244,0.1275,0.1284,0.129,0.1297,0.1314,0.1319,0.1356,0.1385,0.1344,0.1345,0.1415,0.1417,0.1419,0.1467,0,0,0,0,0,0,0.1155,0.1161,0.1178,0.119,0.1197,0.1233,0.1237,0.1244,0.1277,0.1282,0.131,0.1315,0.1315,0.1354,0.1357,0.1386,0.1346,0.1414,0.1416,0.1418,0.1464,0.147,0.1476,0,0,0,0,0,0.1152,0.1168,0.1178,0.1184,0.1215,0.1234,0.1239,0.1264,0.1278,0.1295,0.1318,0.1315,0.137,0.1356,0.1359,0.1389,0.1413,0.1416,0.1418,0.1461,0.1469,0.1476,0,0,0,0,0,0,0.1152,0.1174,0.1185,0.1208,0.1229,0.1242,0.1265,0.1278,0.1309,0.1322,0.1329,0.1335,0.1379,0.1376,0.136,0.1418,0.1392,0.1395,0.1423,0.1431,0.1436,0.1436,0.1347,0,0,0,0,0,0.1158,0.1179,0.1196,0.1219,0.1231,0.1252,0.1269,0.1285,0.1307,0.1323,0.1344,0.1366,0.1387,0.1404,0.1419,0.1449,0.145,0.1471,0.1477,0.1482,0.1485,0.1509,0.1517,0.1428,0.1428,0.1428,0,0,0.1165,0.1181,0.1194,0.1221,0.1241,0.1262,0.1265,0.1298,0.1323,0.1323,0.1374,0.1389,0.14,0.1437,0.1456,0.1442,0.151,0.1485,0.1489,0.1489,0.1513,0.1521,0.1529,0.143,0.143,0.143,0,0,0.118,0.1204,0.1224,0.1243,0.1276,0.1287,0.1302,0.1331,0.1357,0.1395,0.1407,0.1441,0.1472,0.1487,0.1496,0.1543,0.1541,0.1553,0.1585,0.1609,0.1616,0.1623,0.1645,0.1653,0.1556,0.1556,0.1556,0,0.1189,0.1214,0.1233,0.1255,0.1276,0.1302,0.1326,0.1351,0.1391,0.1414,0.142,0.1481,0.1493,0.1535,0.1556,0.1557,0.157,0.1557,0.1616,0.1623,0.1628,0.1649,0.1658,0.1559,0.1559,0.1558,0.1558,0,0.1207,0.1238,0.1254,0.1289,0.1313,0.1342,0.1372,0.1408,0.144,0.1462,0.1519,0.1539,0.1575,0.1587,0.1587,0.164,0.1636,0.1621,0.1597,0.164,0.166,0.1668,0.1563,0.1562,0.1561,0.156,0,0,0.1197,0.1255,0.1264,0.1288,0.1337,0.1355,0.1404,0.1447,0.1486,0.1528,0.1574,0.1617,0.1636,0.1647,0.1659,0.1681,0.1739,0.1676,0.1676,0.1696,0.18,0.1703,0.1702,0.1738,0.1739,0.174,0.18,0,0.1208,0.1252,0.1281,0.133,0.1354,0.1396,0.1437,0.1482,0.1526,0.1577,0.1609,0.1659,0.1657,0.1687,0.171,0.1734,0.176,0.1724,0.1756,0.1757,0.1664,0.1708,0.1745,0.1806,0.1807,0.1809,0.181,0,0.1209,0.1243,0.129,0.1352,0.1368,0.1405,0.1477,0.1519,0.1589,0.1625,0.1677,0.1705,0.1762,0.1745,0.1809,0.179,0.1803,0.1811,0.1813,0.1709,0.1674,0.1751,0.1823,0.1822,0.1821,0.182,0.1819,0,0.1179,0.1246,0.1286,0.1308,0.1381,0.142,0.1467,0.1539,0.1577,0.1667,0.17,0.1765,0.1807,0.1836,0.1866,0.1848,0.1922,0.1893,0.1817,0.1811,0.1858,0.185,0.1931,0.1931,0.1931,0.1931,0.1931,0,0.1163,0.1198,0.1282,0.1304,0.1357,0.1418,0.1482,0.1538,0.1614,0.1653,0.1729,0.1761,0.1833,0.1878,0.1891,0.1883,0.1947,0.183,0.182,0.1878,0.1872,0.1864,0.1855,0.1933,0.1933,0.1932,0.1932,0,0.1114,0.1172,0.1221,0.1311,0.1343,0.1383,0.1479,0.1516,0.1606,0.1659,0.169,0.178,0.184,0.1897,0.1952,0.1905,0.1913,0.1893,0.1969,0.1961,0.1779,0.1773,0.1805,0.1802,0.18,0.1798,0.1796,0,0.1088,0.1111,0.1212,0.1239,0.1285,0.1357,0.1397,0.1499,0.1528,0.1649,0.1653,0.1756,0.1804,0.1805,0.1878,0.1906,0.1883,0.1876,0.1806,0.178,0.1767,0.1765,0.1761,0.1792,0.1791,0.1791,0.179,0,0.1033,0.1082,0.1121,0.1184,0.1235,0.1277,0.1343,0.1354,0.146,0.1554,0.1577,0.1619,0.1684,0.1732,0.1778,0.1789,0.1873,0.185,0.1854,0.1788,0.1764,0.1754,0.1754,0.1782,0.1783,0.1784,0.1784,0,0.0989,0.1001,0.1063,0.1108,0.1164,0.1176,0.1226,0.1259,0.1304,0.1428,0.1437,0.1552,0.1654,0.1673,0.1712,0.1726,0.1692,0.1628,0.1643,0.1653,0.1579,0.1524,0.1465,0,0,0,0,0,0.0934,0.094,0.0978,0.1018,0.107,0.1107,0.1172,0.1222,0.1323,0.1297,0.1361,0.1414,0.1476,0.1541,0.1526,0.166,0.1708,0.1637,0.1643,0.1734,0.1744,0.1672,0,0,0,0,0,0,0.0893,0.0925,0.0947,0.0936,0.0949,0.0993,0.1033,0.1105,0.1091,0.1202,0.124,0.1334,0.1415,0.1472,0.1501,0.1523,0.1499,0.1716,0.1712,0.1729,0.1738,0.1746,0.1675,0,0,0,0,0]},{"header":{"parameterUnit":"m.s-1","parameterCategory":2,"la1":30.2991,"la2":30.254,"lo1":-89.0895,"lo2":-89.0444,"dy":0.0017,"dx":0.0017,"nx":28,"ny":28,"refTime":"2024-02-16T09:00:00:Z","depth":"4","parameterNumber":3,"parameterNumberName":"V-component_of_CURRENTS"},"data":[0,0,0,0,0,0,0,0,0,0,0,0,0,0,0,0,0,0,0,0,0,0,0,0,0,0,0,0,0,0,0,0,0,0,0,0,0,0,0,0,0,0,0,0,0,0,0,0,0,0,0,0,0,0,0,0,0,0,0.0098,0.0098,0,0.0067,0.0067,0.0066,0.0046,0.0046,0.0046,0.0045,0.0017,0.0017,0.0016,0,0,0,0,0,0,0,0,0,0,0,0,0,0.0118,0.0118,0.0098,0.0098,0.0097,0.0067,0.0067,0.0066,0.0046,0.0046,0.0045,0.0045,0.0018,0.0017,0.0016,0,0,0,0,0,0,0,0,0,0,0,0,0,0.01,0.0118,0.0098,0.0084,0.0082,0.0067,0.0067,0.0066,0.0046,0.0046,0.0045,0.0045,0.0018,0.0017,0.0016,0.0013,0,0,0.0013,0.0013,0,0,0,0,0,0,0,0,0.0101,0.0099,0.0086,0.0085,0.0083,0.0061,0.0064,0.0049,0.0046,0.0059,0.0045,0.0045,0.0033,0.003,0.0024,0.0012,0.001,0.0013,0.0012,0.0012,0.0012,0,0,0,0,0,0,0,0.0103,0.0101,0.0085,0.0086,0.0084,0.0072,0.0069,0.0061,0.0047,0.0058,0.0056,0.0054,0.0032,0.0025,0.0023,0.001,0.0013,0.0012,0.0011,0.0011,-0.0019,-0.0019,0,0,0,0,0,0,0.0109,0.0102,0.0086,0.0084,0.0092,0.0072,0.0069,0.0068,0.0047,0.0044,0.0054,0.0053,0.0027,0.0025,0.0022,0.0012,0.0012,0.0011,0.001,-0.0019,-0.0019,-0.0019,0,0,0,0,0,0,0.0109,0.0108,0.0088,0.0093,0.0089,0.0072,0.007,0.0067,0.0059,0.0044,0.004,0.0049,0.0027,0.0024,0.0013,0.0011,0.0011,0.001,-0.0018,-0.0019,-0.0019,-0.0006,0,0,0,0,0,0,0.011,0.0108,0.0109,0.0093,0.0089,0.008,0.007,0.0067,0.0058,0.0056,0.0039,0.0036,0.0026,0.0014,0.0012,0.0009,0.0009,-0.0018,-0.0018,-0.0019,-0.0006,-0.0006,-0.0006,0,0,0,0,0,0.0111,0.0113,0.0109,0.0107,0.0092,0.008,0.0077,0.0064,0.0058,0.0056,0.0042,0.0036,0.001,0.0013,0.0011,0.0008,-0.0018,-0.0018,-0.0019,-0.0006,-0.0006,-0.0006,0,0,0,0,0,0,0.0122,0.0111,0.0106,0.0106,0.0095,0.0077,0.0075,0.0065,0.0052,0.0051,0.0035,0.0032,0.002,0.0012,0.0016,-0.0003,-0.0005,-0.0007,0.0005,0.0005,0.0006,0.0016,0.0008,0,0,0,0,0,0.0125,0.0125,0.0112,0.0111,0.0107,0.0091,0.0085,0.0075,0.0062,0.0056,0.0043,0.0029,0.0016,0.001,-0.0002,-0.001,-0.0021,-0.0015,-0.0015,-0.0014,-0.0008,-0.0029,-0.0029,-0.0021,-0.0021,-0.0021,0,0,0.013,0.0124,0.0124,0.0113,0.0105,0.0102,0.0087,0.0079,0.0076,0.0056,0.0047,0.003,0.0014,0.0003,-0.0003,-0.0004,-0.0024,-0.0015,-0.0014,-0.0008,-0.0029,-0.003,-0.0031,-0.0021,-0.0021,-0.0021,0,0,0.0139,0.0133,0.0137,0.0131,0.012,0.011,0.0109,0.0091,0.0083,0.0071,0.0055,0.0037,0.0018,0.0005,-0.0003,-0.0008,-0.0021,-0.0013,-0.0003,-0.0023,-0.0024,-0.0024,-0.0043,-0.0046,-0.0013,-0.0013,-0.0013,0,0.0145,0.0149,0.0136,0.0138,0.0137,0.0116,0.012,0.0108,0.0088,0.0082,0.0071,0.0037,0.002,0.0008,0.0003,-0.0006,-0.0019,-0.0002,-0.0022,-0.0023,-0.0024,-0.0043,-0.0046,-0.0012,-0.0013,-0.0013,-0.0013,0,0.0158,0.0161,0.0163,0.0161,0.0156,0.0156,0.0141,0.0133,0.0118,0.0102,0.0083,0.0055,0.0037,0.0024,0.0011,-0.0004,-0.0012,-0.0019,-0.0021,-0.0024,-0.0044,-0.0047,-0.0012,-0.0012,-0.0012,-0.0012,0,0,0.0174,0.0173,0.0175,0.0183,0.017,0.0171,0.0165,0.0156,0.0158,0.0124,0.0122,0.0083,0.0063,0.0053,0.0031,0.0009,-0.0017,-0.0007,-0.0009,-0.0022,-0.0061,-0.0062,-0.0066,-0.0028,-0.0028,-0.0029,-0.0074,0,0.019,0.0206,0.0197,0.0213,0.0223,0.0205,0.0208,0.0194,0.0175,0.0166,0.0127,0.0113,0.0077,0.0069,0.0039,0.0002,-0.0024,-0.0004,-0.0059,-0.0061,-0.0058,-0.0069,-0.003,-0.0076,-0.0077,-0.0077,-0.0078,0,0.0211,0.022,0.0241,0.0253,0.0256,0.0262,0.0267,0.0264,0.0239,0.0224,0.0192,0.016,0.0122,0.0094,0.0021,0.0035,-0.0012,-0.0046,-0.0048,-0.0054,-0.0067,-0.0073,-0.0084,-0.0083,-0.0083,-0.0083,-0.0082,0,0.0245,0.0254,0.0277,0.0279,0.0286,0.0297,0.0299,0.0284,0.0296,0.0262,0.0263,0.0201,0.0189,0.0113,0.0031,0.0026,-0.0046,-0.0062,-0.0109,-0.0109,-0.01,-0.0099,-0.0114,-0.0114,-0.0114,-0.0114,-0.0113,0,0.0272,0.0293,0.0298,0.0315,0.0352,0.0337,0.037,0.0359,0.0358,0.0379,0.0301,0.0304,0.0195,0.0136,0.0047,-0.0039,-0.0038,-0.0107,-0.0121,-0.0095,-0.0092,-0.0103,-0.0101,-0.0115,-0.0115,-0.0115,-0.0114,0,0.0315,0.0313,0.0349,0.0364,0.0374,0.0403,0.0435,0.0458,0.044,0.0466,0.046,0.0393,0.0307,0.0189,0.0075,0.0001,-0.0094,-0.0125,-0.0085,-0.0097,-0.0149,-0.0146,-0.0184,-0.0184,-0.0185,-0.0185,-0.0185,0,0.0341,0.0363,0.0399,0.0427,0.044,0.0478,0.051,0.0507,0.0532,0.0523,0.0543,0.0468,0.0405,0.0242,0.0109,-0.0068,-0.0094,-0.0145,-0.0157,-0.0146,-0.0157,-0.0153,-0.015,-0.0186,-0.0186,-0.0186,-0.0186,0,0.0396,0.0411,0.0441,0.0498,0.0538,0.0583,0.0623,0.0647,0.0646,0.0635,0.0612,0.051,0.0416,0.0261,0.0123,-0.0004,-0.0116,-0.0149,-0.015,-0.0161,-0.0149,-0.0158,-0.0154,-0.0187,-0.0187,-0.0187,-0.0187,0,0.0446,0.0478,0.0518,0.0564,0.0619,0.0666,0.0679,0.0699,0.0717,0.0691,0.069,0.0561,0.0491,0.0296,0.0171,0.0039,0.0001,-0.0043,-0.005,-0.005,-0.0006,0.0029,0.0036,0,0,0,0,0,0.0491,0.0524,0.0577,0.0623,0.0677,0.0704,0.0747,0.0749,0.0747,0.0741,0.0713,0.0616,0.0421,0.0337,0.0206,0.0157,-0.0025,-0.0002,-0.008,-0.0194,-0.0192,-0.0165,0,0,0,0,0,0,0.0521,0.0577,0.0589,0.0663,0.0697,0.0758,0.0783,0.0779,0.0767,0.0743,0.0642,0.0584,0.0394,0.0498,0.0205,0.0164,0.0097,-0.0096,-0.0099,-0.0195,-0.0193,-0.0192,-0.0163,0,0,0,0,0]}]]